Theta_e
289 290 290 289 289 290 289 290 286 289 289 293 296 298 300 302 303 304 306 308 312 314 316 323 327 330 332 334 336 336 334 331 330 329 328 327 324 321 322 320 320 320 318 317
289 290 291 288 289 290 291 291 291 291 290 298 300 300 300 301 302 302 303 306 310 313 315 315 325 327 329 330 330 331 331 329 328 327 325 324 323 321 321 320 318 315 313 314
285 290 290 285 290 290 291 292 292 287 293 297 297 298 298 300 302 301 303 307 309 312 315 316 321 325 326 328 328 327 327 326 323 324 324 322 321 320 319 318 317 315 314 312
286 289 279 290 295 292 289 291 293 292 291 293 295 296 299 302 302 305 306 308 309 310 314 318 322 324 325 326 326 324 322 322 322 321 321 320 319 315 314 313 311 307 305 304
284 284 287 290 291 289 287 287 289 287 289 290 291 294 297 299 301 299 299 301 303 306 309 315 321 324 322 317 316 315 312 315 315 316 310 307 307 303 304 304 301 301 300 300
287 280 279 285 291 295 294 285 290 289 286 290 290 287 287 290 293 294 295 297 297 300 303 304 305 309 307 305 305 302 303 303 302 302 300 299 299 299 300 299 298 299 298 299
286 284 286 288 292 294 281 282 289 288 287 288 285 286 288 290 289 290 291 292 295 297 296 298 298 299 297 297 296 298 298 298 297 297 296 297 297 298 297 297 298 297 298 301
286 283 279 290 291 283 286 289 289 289 289 288 288 289 289 290 289 288 289 290 290 292 293 296 296 294 293 294 296 296 295 295 295 296 297 297 297 297 297 298 298 298 300 301
286 285 291 291 289 292 294 291 290 290 291 290 289 288 289 286 288 289 289 288 288 287 289 291 293 293 288 292 295 295 295 295 294 296 296 297 297 298 299 301 301 301 301 301
288 290 291 292 296 297 297 295 294 294 293 292 289 289 290 289 287 287 289 291 291 288 288 291 292 291 292 295 297 297 294 295 298 300 297 298 299 300 298 297 299 298 298 298
288 291 292 295 297 298 297 297 297 296 293 292 291 290 290 290 290 291 291 292 293 294 292 291 294 294 295 295 297 296 297 297 296 298 299 298 298 298 298 298 294 295 296 295
286 292 291 292 298 298 297 296 296 294 293 292 293 291 291 290 291 292 291 293 293 293 293 293 294 295 296 298 297 297 295 293 295 298 298 299 298 297 292 292 291 291 290 291
294 297 296 299 299 299 298 297 297 296 296 295 295 295 294 291 291 293 295 293 292 293 295 295 296 295 296 297 297 296 294 294 295 295 295 297 297 296 296 295 292 291 290 290
299 299 296 297 296 299 298 298 298 297 297 297 296 297 296 295 295 295 295 296 297 296 296 297 297 297 299 299 298 296 294 292 294 294 293 294 295 296 297 296 294 295 292 291
298 300 299 300 299 299 299 298 296 295 295 296 297 297 297 295 295 295 297 298 298 297 297 298 296 297 299 299 298 297 296 294 294 294 294 294 295 295 295 295 296 294 295 294
299 299 299 299 298 299 299 299 297 296 295 295 296 297 297 298 298 297 297 297 295 294 295 295 295 298 299 299 298 297 297 291 292 294 294 294 294 294 294 294 295 294 293 292
297 297 298 298 299 298 298 299 298 297 296 296 297 297 298 298 298 298 298 299 299 298 298 297 297 299 298 297 297 296 296 297 288 294 293 293 293 293 294 293 293 293 292 292
302 302 301 300 300 299 299 298 298 298 297 297 297 297 297 297 297 298 298 299 299 298 298 298 298 299 299 296 297 297 296 296 295 294 293 292 292 293 293 293 293 292 293 292
304 301 302 302 302 301 300 299 299 299 298 297 297 297 298 298 299 299 299 298 297 296 297 299 296 298 298 295 294 297 296 295 294 294 293 290 292 293 293 293 292 292 293 290
304 304 304 303 302 302 300 301 301 300 300 300 300 299 299 299 300 300 299 298 298 297 299 299 299 298 298 297 292 296 295 294 293 293 292 292 292 292 292 290 291 292 291 290
303 304 304 302 303 303 303 303 302 301 301 302 301 299 300 301 301 300 299 296 299 299 298 297 298 297 297 293 296 296 294 293 292 292 292 292 291 291 292 292 291 291 290 289
305 303 303 304 304 304 304 303 302 302 302 301 301 302 301 300 300 301 301 299 300 286 298 299 298 288 293 287 297 296 295 293 292 292 292 292 291 291 291 291 291 290 290 289
306 306 307 305 305 305 305 306 304 301 300 302 301 301 302 304 303 301 299 302 302 293 300 300 288 285 285 297 297 297 295 293 291 291 291 291 291 291 291 290 290 290 290 288
306 307 307 307 307 305 304 307 308 306 303 301 300 302 304 303 302 305 307 293 288 291 298 296 293 285 284 297 296 296 295 294 292 291 291 288 291 291 291 290 289 290 289 288
305 305 306 305 302 304 305 306 307 307 307 301 301 306 307 307 304 305 305 304 288 292 300 285 286 286 297 297 296 295 294 294 293 292 290 291 290 290 290 290 289 290 289 289
301 301 303 305 305 304 304 305 303 305 304 304 306 307 309 308 307 305 304 298 303 296 301 303 301 300 299 296 295 294 294 293 293 292 290 291 290 290 289 289 289 290 290 289
300 295 300 303 304 303 303 303 304 305 302 305 301 302 302 304 305 300 295 303 303 302 301 302 301 297 298 297 296 295 294 293 290 292 292 291 290 289 289 290 290 291 291 289
Wind_Speed
7 9 10 11 13 15 17 16 18 23 27 26 26 27 23 32 27 28 27 25 23 21 16 19 8 8 8 10 11 11 13 13 13 13 12 13 13 14 13 12 10 9 10 8
12 4 12 11 4 6 10 12 17 24 30 26 27 26 23 24 26 29 28 28 24 24 18 16 11 7 6 9 11 10 11 13 13 12 13 14 14 14 12 12 11 10 9 8
5 14 12 6 12 15 17 18 23 27 33 34 34 25 20 24 25 30 30 27 22 22 23 16 14 8 8 12 10 11 12 12 12 14 14 14 14 14 13 13 12 10 8 6
7 11 5 11 16 14 22 24 25 24 23 28 28 24 24 28 27 24 23 24 23 19 21 23 13 9 7 9 10 11 11 11 11 11 12 14 13 11 10 10 10 9 8 8
4 9 10 11 15 24 27 29 18 27 32 31 23 25 22 23 19 16 18 18 17 14 16 12 11 11 9 10 13 12 10 9 9 12 14 13 14 13 10 9 8 8 6 4
6 4 5 10 24 25 20 9 34 30 30 20 17 8 8 17 19 18 17 17 16 15 13 10 14 10 16 14 15 14 12 12 12 12 12 11 12 10 9 9 7 4 3 2
5 3 8 14 21 21 14 13 23 18 17 17 11 7 9 13 16 17 16 19 17 16 15 15 18 16 21 18 18 15 16 17 16 14 15 12 10 10 7 6 5 3 1 2
5 3 5 16 9 8 8 10 12 13 14 12 14 13 16 17 17 17 17 17 18 17 17 15 17 22 19 21 15 16 16 17 14 11 9 7 8 5 5 2 1 1 3 4
5 4 5 8 7 8 8 8 8 10 12 14 14 14 15 15 17 16 17 17 16 15 15 17 16 19 17 16 10 13 15 14 12 7 8 5 6 5 2 3 3 4 4 3
4 6 9 8 11 10 9 10 10 11 15 16 14 14 13 13 13 14 14 16 14 15 16 11 19 20 16 12 10 13 13 12 11 12 6 8 7 5 5 4 4 4 5 5
2 5 10 11 13 12 10 10 12 13 14 14 14 15 12 13 12 12 14 15 15 16 15 18 18 17 13 12 13 11 13 11 7 8 9 6 5 6 6 6 6 6 5 7
4 6 2 8 10 11 12 11 11 11 10 9 10 9 13 13 11 11 13 11 11 12 14 14 12 13 13 12 15 13 12 7 9 9 6 3 5 5 5 3 3 4 6 6
2 4 3 6 6 7 9 9 11 12 11 10 12 13 14 11 11 12 14 13 14 16 15 15 16 14 13 13 14 13 12 10 7 7 7 7 6 5 6 4 10 10 8 7
4 5 7 8 7 8 6 5 9 10 10 10 12 13 14 15 14 14 15 15 14 13 14 14 15 16 15 15 14 14 12 9 8 8 9 7 7 6 5 4 6 6 6 7
3 4 6 8 7 9 7 6 8 10 11 10 10 12 13 14 14 15 15 14 14 14 15 15 15 15 15 14 13 13 10 10 9 7 7 5 6 7 7 7 6 6 7 5
1 3 6 5 7 9 9 9 9 10 9 8 9 10 11 11 12 11 10 10 11 11 13 12 13 14 14 14 13 10 8 10 7 8 7 8 7 8 8 8 8 8 8 9
2 6 5 7 8 8 8 8 8 9 8 8 9 9 10 11 13 12 13 13 13 13 14 15 14 14 15 16 12 9 8 8 5 9 9 9 9 9 8 8 9 8 8 8
3 1 3 4 5 6 6 5 6 7 7 7 6 8 9 11 12 12 13 12 12 14 15 15 15 15 15 17 13 11 10 10 9 8 8 9 8 8 9 9 10 11 10 10
1 3 4 3 2 2 3 4 5 5 5 5 6 6 7 9 10 10 12 13 13 14 14 15 13 17 17 18 16 12 12 12 11 10 9 10 10 11 11 11 12 12 11 11
6 3 5 5 4 4 5 4 4 5 4 4 3 6 7 9 9 10 11 12 10 8 11 13 15 16 18 18 16 12 13 13 12 11 10 11 11 11 11 11 12 12 11 12
2 10 8 5 4 4 3 3 3 3 3 1 3 5 4 5 7 8 9 7 8 6 6 7 11 11 11 11 11 11 11 12 11 11 10 10 11 11 11 12 11 12 11 11
6 4 1 7 4 3 5 4 6 4 5 4 3 3 5 5 5 4 5 5 5 2 5 6 8 8 8 12 10 11 11 11 10 9 9 10 10 11 11 12 12 12 10 11
5 5 2 6 6 3 4 9 9 8 6 9 4 5 5 5 4 5 4 3 3 4 5 5 5 4 8 8 10 11 11 11 11 10 10 10 10 10 11 12 12 12 12 12
11 9 8 9 7 6 9 9 6 9 9 5 7 9 6 6 5 4 0 4 1 4 5 5 2 4 8 8 10 10 11 10 10 10 10 10 10 10 11 12 12 12 12 13
7 7 6 8 9 8 9 8 7 5 5 6 9 12 11 6 6 6 4 4 7 5 6 9 4 5 6 7 9 10 10 9 9 10 10 10 10 11 11 12 12 11 12 12
7 6 6 5 4 6 7 7 6 6 3 4 4 5 4 4 5 4 4 4 6 3 7 1 3 3 5 6 8 9 10 10 10 10 10 10 11 11 12 13 13 12 12 12
6 2 7 5 5 7 6 6 5 2 3 8 5 4 4 3 2 3 4 7 5 4 4 3 4 1 5 5 7 8 9 10 8 9 10 11 11 11 12 12 12 12 12 12
Wind_Direction
321 293 294 295 293 298 290 292 284 304 298 304 312 308 318 313 320 315 311 316 316 320 321 317 265 254 234 205 181 176 174 166 161 153 155 150 152 162 152 148 159 147 129 118
293 359 309 295 305 311 305 310 313 306 298 300 316 311 306 300 300 307 307 309 313 312 309 315 268 238 232 203 184 181 175 168 159 156 153 163 159 155 156 150 143 132 135 150
331 332 302 143 18 359 338 331 320 302 308 310 301 309 318 305 307 300 296 309 305 307 303 301 280 214 222 206 171 179 178 165 158 167 166 162 160 158 156 147 142 133 109 80
313 327 344 64 52 0 325 306 308 328 326 322 326 323 316 311 303 309 305 312 310 309 301 296 269 194 201 174 180 179 180 163 157 161 163 163 154 126 117 118 113 105 103 87
310 326 291 64 4 335 326 314 13 339 331 315 307 312 306 351 342 338 331 327 318 318 298 304 259 189 150 107 106 100 96 112 116 125 113 116 114 116 112 100 82 78 73 65
346 314 352 10 341 333 314 281 3 340 323 325 313 298 9 336 357 3 1 353 351 354 346 26 37 77 91 87 92 84 82 79 79 85 91 103 107 101 99 98 92 97 105 229
342 325 86 351 342 321 11 339 323 330 337 4 23 357 322 351 11 4 360 10 9 18 25 25 60 51 76 76 71 76 76 73 63 62 74 69 64 70 71 86 118 134 210 297
323 334 19 355 347 32 299 295 314 337 351 355 3 2 12 14 9 3 6 9 11 30 32 29 53 67 43 62 60 72 76 78 76 72 78 72 89 89 85 75 62 1 300 280
338 32 312 328 310 281 300 315 354 3 1 1 3 4 16 14 10 3 9 16 19 25 24 31 45 62 65 47 47 73 67 67 74 77 88 92 81 88 91 32 340 326 311 279
326 15 341 320 348 338 25 33 16 22 20 12 15 10 7 26 8 360 6 25 27 33 30 25 46 51 43 43 64 50 71 62 65 69 62 52 45 47 55 4 345 353 335 316
104 21 306 20 353 12 34 22 17 31 26 11 25 16 10 19 26 22 26 29 28 44 42 41 43 51 49 45 47 52 61 60 56 58 51 54 53 31 43 58 9 343 345 335
48 292 233 280 7 6 26 20 21 19 41 34 11 29 37 20 16 51 36 31 45 43 50 51 57 56 50 52 45 42 58 52 28 60 50 27 30 81 142 130 195 260 269 284
266 338 309 2 10 7 34 12 12 29 25 29 35 33 38 60 39 38 54 57 46 39 46 38 48 48 53 43 36 49 46 33 38 44 30 20 32 21 7 175 209 222 234 257
30 358 6 2 12 13 36 37 23 25 36 36 38 43 46 45 48 46 46 44 49 52 54 50 46 36 28 33 36 35 33 31 22 24 30 2 4 358 351 4 343 340 215 225
59 17 4 1 19 24 32 42 41 32 27 32 47 47 47 49 48 46 40 41 44 39 38 35 33 30 25 21 25 28 27 22 6 15 30 344 354 350 350 352 347 344 332 315
89 55 357 15 18 28 20 35 38 42 40 42 39 44 50 53 54 52 45 37 35 35 34 29 28 25 19 16 12 18 37 64 360 5 6 6 355 351 349 345 352 354 341 334
13 10 32 19 23 22 27 31 38 43 42 55 48 41 37 38 41 35 36 34 46 39 40 33 25 29 32 15 2 16 14 20 12 11 5 0 358 344 345 344 344 344 336 336
268 289 4 330 338 11 40 52 53 53 52 56 52 45 39 36 35 33 35 34 47 46 38 38 25 22 28 19 2 19 16 13 12 9 360 359 344 345 347 347 343 339 343 337
272 333 22 50 125 78 79 89 85 88 88 72 59 49 42 36 37 41 41 34 35 33 30 24 17 23 19 26 0 15 10 7 4 3 1 348 351 355 349 350 339 336 339 332
25 35 60 84 110 104 130 139 133 112 102 93 77 51 45 39 33 39 48 50 40 31 26 20 21 20 19 13 355 8 3 0 357 358 3 344 353 342 344 337 332 332 336 323
352 5 354 56 98 110 104 147 180 174 155 163 44 24 15 33 41 30 33 45 38 25 352 37 30 14 15 354 350 5 0 359 356 355 351 349 343 343 336 334 331 329 331 324
87 100 350 304 342 25 36 20 308 240 258 249 265 325 341 1 359 74 61 20 53 341 344 35 28 21 345 317 8 7 1 2 358 354 349 346 341 336 334 332 332 327 328 323
22 34 323 350 351 309 251 242 227 243 225 269 346 326 321 294 303 339 355 104 319 79 314 42 60 335 317 342 2 6 1 5 0 353 345 347 335 334 330 327 328 325 325 323
360 5 2 343 352 342 354 355 319 223 209 178 216 265 259 277 286 254 189 140 162 236 324 51 77 317 296 357 359 1 0 4 0 347 345 334 338 334 330 328 327 324 323 318
358 343 344 345 347 353 354 357 354 23 182 189 230 252 248 251 276 294 318 316 135 241 294 132 173 259 303 359 350 354 354 3 1 345 344 341 335 333 330 330 324 323 317 318
348 345 331 317 349 327 359 16 11 12 345 317 262 234 234 221 211 264 287 259 302 213 267 215 302 297 346 357 332 347 353 356 1 354 339 344 337 334 331 330 326 323 319 317
348 339 336 330 0 357 8 353 338 335 310 300 351 348 32 5 63 287 291 296 303 288 279 316 280 160 328 333 337 348 353 358 8 351 348 347 342 333 326 324 319 319 318 320